Elmira, NY

9:14 PM EST on November 19, 2019 (GMT -0500)
Elmira-Corning Regional

Weather History for KELM - May, 2019

Change the Weather History Date:

Wednesday, May 22, 2019

  Actual Average Record
Temperature  
Mean Temperature 53 °F -  
Max Temperature 72 °F 70 °F 91 °F (2013)
Min Temperature 36 °F 45 °F 30 °F (2002)
Degree Days  
Heating Degree Days 12    
Growing Degree Days 3 (Base 50)    
Moisture  
Dew Point 40 °F    
Average Humidity 59    
Maximum Humidity 93    
Minimum Humidity 32    
Precipitation  
Precipitation 0.00 in - - ()
Sea Level Pressure  
Sea Level Pressure 30.21 in    
Wind  
Wind Speed 3 mph (South)    
Max Wind Speed 7 mph    
Max Gust Speed -    
Visibility 10 miles    
Events Rain    
Averages and records for this station are not official NWS values.
T = Trace of Precipitation, MM = Missing Value Source: NWS Daily Summary

Daily Weather History Graph

Daily Weather History Graph

Search for Another Location

Airport or City:

Astronomy

May. 22, 2019 Rise Set
Actual Time 5:40 AM EDT 8:28 PM EDT
Civil Twilight 5:07 AM EDT 9:01 PM EDT
Nautical Twilight 4:26 AM EDT 9:42 PM EDT
Astronomical Twilight 3:39 AM EDT 10:30 PM EDT
Moon No Moon Rise 8:45 AM EDT (5/22)
Length of Visible Light 15h 53m
Length of Day
14h 47m
Waning Gibbous, 85% of the Moon is Illuminated
May 22
Waning Gibbous
May 26
Last Quarter
Jun 3
New
Jun 10
First Quarter
Jun 17
Full

Hourly Weather History & Observations

Time (EDT) Temp. Windchill Dew Point Humidity Pressure Visibility Wind Dir Wind Speed Gust Speed Precip Events Conditions
12:53 AM 39.9 °F - 37.0 °F 89% 30.19 in 10.0 mi Calm Calm - N/A   Clear
1:53 AM 39.0 °F - 36.0 °F 89% 30.22 in 10.0 mi Calm Calm - N/A   Clear
2:53 AM 41.0 °F - 37.9 °F 89% 30.22 in 10.0 mi Calm Calm - N/A   Clear
3:53 AM 42.1 °F 37.7 °F 39.0 °F 89% 30.22 in 10.0 mi WSW 6.9 mph - N/A   Clear
4:53 AM 36.0 °F 33.3 °F 34.0 °F 93% 30.24 in 10.0 mi West 3.5 mph - N/A   Clear
5:53 AM 37.0 °F - 35.1 °F 93% 30.25 in 10.0 mi Calm Calm - N/A   Clear
6:53 AM 41.0 °F 39.0 °F 37.9 °F 89% 30.27 in 10.0 mi West 3.5 mph - N/A   Clear
7:53 AM 46.0 °F - 42.1 °F 86% 30.29 in 10.0 mi Calm Calm - N/A   Clear
8:53 AM 52.0 °F - 44.1 °F 74% 30.30 in 10.0 mi SSW 3.5 mph - N/A   Clear
9:53 AM 59.0 °F - 44.1 °F 58% 30.29 in 10.0 mi Variable 3.5 mph - N/A   Clear
10:53 AM 64.9 °F - 39.0 °F 39% 30.27 in 10.0 mi NE 4.6 mph - N/A   Clear
11:53 AM 66.0 °F - 41.0 °F 40% 30.25 in 10.0 mi East 6.9 mph - N/A   Clear
12:53 PM 66.9 °F - 41.0 °F 39% 30.24 in 10.0 mi SW 3.5 mph - N/A   Clear
1:53 PM 70.0 °F - 39.9 °F 33% 30.22 in 10.0 mi East 6.9 mph - N/A   Clear
2:53 PM 70.0 °F - 39.0 °F 32% 30.22 in 10.0 mi Variable 4.6 mph - N/A   Clear
3:53 PM 69.1 °F - 39.0 °F 33% 30.20 in 10.0 mi SE 5.8 mph - N/A   Clear
4:53 PM 69.1 °F - 39.0 °F 33% 30.19 in 10.0 mi SE 6.9 mph - N/A   Clear
5:53 PM 68.0 °F - 41.0 °F 37% 30.18 in 10.0 mi SE 5.8 mph - N/A   Partly Cloudy
6:53 PM 68.0 °F - 37.9 °F 33% 30.16 in 10.0 mi SSE 5.8 mph - N/A   Overcast
7:53 PM 66.0 °F - 42.1 °F 42% 30.16 in 10.0 mi SSW 3.5 mph - N/A   Mostly Cloudy
8:53 PM 64.9 °F - 42.1 °F 43% 30.15 in 10.0 mi SSW 5.8 mph - N/A   Overcast
9:53 PM 64.0 °F - 41.0 °F 43% 30.14 in 10.0 mi South 6.9 mph - N/A   Partly Cloudy
10:53 PM 62.1 °F - 46.0 °F 56% 30.14 in 10.0 mi Calm Calm - 0.00 in Rain Light Rain
11:53 PM 61.0 °F - 51.1 °F 70% 30.12 in 10.0 mi ESE 3.5 mph - 0.00 in   Overcast